This demonstration page uses our WeatherBlox Daily Observations layout. Learn more.

Hourly Observations for August 10, 2017

Temp ( °F °C ) Dew Point ( °F °C ) Humidity (%) Winds ( mph kmh ) Pressure ( in mb ) Visibility ( mi km ) Precip ( " mm )
12:15 am 00:15 Clear with Mist and Fog 63 17.1 61 16 93 93 Calm 30.06 1018 5 8.04672 0 0
12:35 am 00:35 Clear with Mist and Fog 62 16.9 60 15.7 93 93 Calm 30.06 1018 5 8.04672 0 0
12:55 am 00:55 Clear with Mist and Fog 62 16.6 60 15.5 93 93 Calm 30.06 1018 5 8.04672 0 0
1:15 am 01:15 Clear with Mist and Fog 62 16.8 60 15.8 94 94 NW 3 6 30.06 1018 5 8.04672 0 0
1:35 am 01:35 Clear with Mist and Fog 62 16.7 60 15.7 94 94 Calm 30.06 1018 5 8.04672 0 0
1:55 am 01:55 Clear with Mist and Fog 61 16.3 60 15.3 94 94 N 5 7 30.06 1018 4 6.437376 0 0
2:15 am 02:15 Clear with Mist and Fog 60 15.8 59 15 95 95 Calm 30.06 1018 3 4.828032 0 0
2:35 am 02:35 Mostly Cloudy with Mist and Fog 60 15.4 58 14.5 94 94 Calm 30.06 1018 1.5 2.414016 0 0
2:55 am 02:55 Cloudy with Fog 59 15.1 58 14.3 95 95 NNW 3 6 30.06 1018 0.25 0.402336 0 0
3:15 am 03:15 Cloudy with Fog 58 14.7 57 14 96 96 Calm 30.06 1018 0.25 0.402336 0 0
3:35 am 03:35 Cloudy with Fog 58 14.5 57 13.7 95 95 Calm 30.03 1017 0.5 0.804672 0 0
3:55 am 03:55 Cloudy with Fog 58 14.5 57 13.9 96 96 Calm 30.03 1017 0.25 0.402336 0 0
4:15 am 04:15 Cloudy with Fog 58 14.4 56 13.6 95 95 Calm 30.06 1018 0 0 0 0
4:35 am 04:35 Cloudy with Fog 57 14 56 13.3 96 96 Calm 30.03 1017 0.25 0.402336 0 0
4:55 am 04:55 Cloudy with Fog 58 14.2 56 13.5 96 96 Calm 30.06 1018 0.25 0.402336 0 0
5:15 am 05:15 Cloudy with Fog 58 14.5 57 13.8 96 96 Calm 30.06 1018 0.25 0.402336 0 0
5:35 am 05:35 Cloudy with Fog 57 14 56 13.3 96 96 WNW 3 6 30.09 1019 0.25 0.402336 0 0
5:55 am 05:55 Cloudy with Mist and Fog 57 13.9 56 13.2 96 96 Calm 30.09 1019 1.5 2.414016 0 0
6:15 am 06:15 Partly Cloudy with Mist and Fog 57 13.8 56 13.1 96 96 Calm 30.09 1019 2 3.218688 0 0
6:35 am 06:35 Partly Cloudy with Mist and Fog 58 14.2 56 13.5 96 96 Calm 30.06 1018 5 8.04672 0 0
6:55 am 06:55 Sunny with Mist and Fog 58 14.4 57 13.7 96 96 Calm 30.06 1018 3 4.828032 0 0
7:15 am 07:15 Sunny with Mist and Fog 58 14.6 57 13.9 96 96 WNW 5 7 30.09 1019 5 8.04672 0 0
7:35 am 07:35 Sunny with Mist and Fog 60 15.7 59 15 96 96 Calm 30.09 1019 3 4.828032 0 0
7:55 am 07:55 Sunny with Mist and Fog 61 16 60 15.3 96 96 Calm 30.09 1019 3 4.828032 0 0
8:15 am 08:15 Sunny with Mist and Fog 61 16 60 15.4 96 96 Calm 30.09 1019 3 4.828032 0 0
8:35 am 08:35 Sunny 63 17.2 62 16.5 96 96 Calm 30.09 1019 7 11.265408 0 0
8:55 am 08:55 Sunny 64 17.5 61 16.3 93 93 NNE 3 6 30.09 1019 10 16.09344 0 0
9:15 am 09:15 Sunny 64 17.7 61 16 90 90 Calm 30.06 1018 10 16.09344 0 0
9:35 am 09:35 Sunny 65 18.2 61 15.9 87 87 NE 3 6 30.06 1018 10 16.09344 0 0
9:55 am 09:55 Sunny 65 18.5 61 16 85 85 NE 3 6 30.06 1018 10 16.09344 0 0
10:15 am 10:15 Sunny 67 19.3 61 16.3 83 83 NE 5 7 30.06 1018 10 16.09344 0 0
10:35 am 10:35 Sunny 69 20.5 59 14.8 70 70 NE 9 15 30.06 1018 10 16.09344 0 0
10:55 am 10:55 Sunny 70 21.2 59 15.1 68 68 NE 9 15 30.03 1017 10 16.09344 0 0
11:15 am 11:15 Partly Cloudy 71 21.6 58 14.6 65 65 ENE 8 13 30.03 1017 10 16.09344 0 0
11:35 am 11:35 Partly Cloudy 72 22 57 14.1 61 61 ENE 9 15 30.03 1017 10 16.09344 0 0
11:55 am 11:55 Sunny 71 21.4 57 14.1 63 63 NE 6 9 30.06 1018 10 16.09344 0 0
12:15 pm 12:15 Mostly Cloudy 70 21 58 14.6 67 67 NNE 6 9 30.09 1019 10 16.09344 0 0
12:35 pm 12:35 Cloudy with Light Rain 69 20.8 58 14.5 67 67 NE 5 7 30.09 1019 10 16.09344 0 0
12:55 pm 12:55 Cloudy with Light Rain 68 20.2 60 15.6 75 75 N 3 6 30.12 1020 10 16.09344 0 0
1:15 pm 13:15 Cloudy 68 19.9 62 16.4 80 80 NW 5 7 30.12 1020 10 16.09344 0.01 0.254
1:35 pm 13:35 Cloudy with Rain 67 19.3 61 16.2 82 82 NW 6 9 30.15 1021 7 11.265408 0.04 1.016
1:55 pm 13:55 Cloudy with Rain 66 18.7 60 15.7 83 83 N 5 7 30.12 1020 10 16.09344 0.07 1.778
2:15 pm 14:15 Cloudy with Rain 65 18.4 60 15.3 82 82 NE 6 9 30.12 1020 7 11.265408 0.04 1.016
2:35 pm 14:35 Cloudy with Light Rain 65 18.1 60 15.8 87 87 E 5 7 30.09 1019 10 16.09344 0.06 1.524
2:55 pm 14:55 Mostly Cloudy with Light Drizzle 66 19 62 16.4 85 85 ENE 9 15 30.09 1019 10 16.09344 0.06 1.524
3:15 pm 15:15 Partly Cloudy 68 19.8 60 15.7 77 77 ENE 10 17 30.09 1019 10 16.09344 0 0
3:35 pm 15:35 Sunny 69 20.8 62 16.4 76 76 ENE 13 20 30.06 1018 10 16.09344 0 0
3:55 pm 15:55 Sunny 72 22 60 15.3 66 66 E 13 20 30.03 1017 10 16.09344 0 0
4:15 pm 16:15 Sunny 71 21.5 58 14.4 64 64 ENE 9 15 30.06 1018 10 16.09344 0 0
4:35 pm 16:35 Sunny 72 22.1 56 13.5 58 58 E 9 15 30.06 1018 10 16.09344 0 0
4:55 pm 16:55 Sunny 71 21.7 57 13.9 61 61 NE 7 11 30.06 1018 10 16.09344 0 0
5:15 pm 17:15 Sunny 72 22.1 56 13.3 58 58 NE 7 11 30.06 1018 10 16.09344 0 0
5:35 pm 17:35 Sunny 72 22.4 55 12.7 54 54 NE 7 11 30.06 1018 10 16.09344 0 0
5:55 pm 17:55 Mostly Cloudy 71 21.9 55 13 57 57 NNE 6 9 30.06 1018 10 16.09344 0 0
6:15 pm 18:15 Cloudy 71 21.6 56 13.3 59 59 NE 5 7 30.06 1018 10 16.09344 0 0
6:35 pm 18:35 Cloudy 71 21.6 57 14 62 62 N 3 6 30.06 1018 10 16.09344 0 0
6:55 pm 18:55 Cloudy 71 21.6 58 14.7 65 65 N 5 7 30.06 1018 10 16.09344 0 0
7:15 pm 19:15 Cloudy 70 21.2 59 15.1 68 68 Calm 30.09 1019 10 16.09344 0 0
7:35 pm 19:35 Cloudy 70 21 60 15.4 70 70 Calm 30.09 1019 10 16.09344 0 0
7:55 pm 19:55 Cloudy 69 20.6 61 15.9 75 75 Calm 30.09 1019 10 16.09344 0 0
8:15 pm 20:15 Cloudy 69 20.5 61 16.3 77 77 Calm 30.09 1019 10 16.09344 0 0
8:35 pm 20:35 Cloudy 68 19.8 62 16.4 81 81 Calm 30.09 1019 10 16.09344 0 0
8:55 pm 20:55 Cloudy 68 19.8 62 16.5 81 81 Calm 30.09 1019 10 16.09344 0 0
9:15 pm 21:15 Cloudy 67 19.4 62 16.6 84 84 Calm 30.09 1019 10 16.09344 0 0
9:35 pm 21:35 Cloudy 66 19.1 62 16.8 87 87 Calm 30.09 1019 10 16.09344 0 0
9:55 pm 21:55 Cloudy 67 19.4 61 16.2 82 82 Calm 30.09 1019 10 16.09344 0 0
10:15 pm 22:15 Cloudy 66 18.8 63 17 89 89 Calm 30.09 1019 10 16.09344 0 0
10:35 pm 22:35 Cloudy 66 18.7 61 16.3 86 86 N 3 6 30.12 1020 10 16.09344 0 0
10:55 pm 22:55 Partly Cloudy 65 18.1 60 15.5 85 85 N 6 9 30.09 1019 10 16.09344 0 0
11:15 pm 23:15 Partly Cloudy 64 17.5 58 14.3 82 82 N 6 9 30.12 1020 10 16.09344 0 0
11:35 pm 23:35 Partly Cloudy 62 16.7 57 14 84 84 N 6 9 30.12 1020 10 16.09344 0 0
11:55 pm 23:55 Partly Cloudy 61 16.1 56 13.5 85 85 N 5 7 30.15 1021 10 16.09344 0 0

Powered by AerisWeather